Dewpoint
50 51 52 50 50 51 52 51 52 52 51 49 49 49 50 50 51 51 50 48 45 46 48 48 49 51 45 45 45 48 46 45 45 47 49 49 52 51 50 52 53 55 55
47 48 50 50 50 52 52 51 52 51 50 48 47 47 46 47 48 48 45 44 43 44 46 48 48 47 48 46 44 45 46 46 47 46 48 50 50 50 49 50 51 53 55
45 47 49 51 53 53 53 52 52 50 49 48 48 46 45 46 44 44 43 43 42 43 45 48 48 48 46 45 45 45 43 45 47 47 47 47 50 49 47 48 49 51 54
44 46 49 52 52 52 53 51 50 50 49 48 48 46 47 45 42 41 40 41 41 42 47 48 48 46 46 46 44 43 42 43 43 44 45 47 46 47 48 46 46 49 51
45 45 50 51 52 52 51 51 51 51 50 48 47 47 46 43 39 42 42 41 42 44 46 45 45 44 45 45 40 41 40 39 42 43 44 45 45 45 45 47 47 47 50
45 46 47 49 49 51 51 52 51 51 50 50 48 47 46 40 42 43 43 41 43 44 43 43 44 44 45 45 43 42 43 40 43 43 45 45 45 46 45 47 47 45 45
47 46 44 47 46 50 50 50 50 51 51 50 49 48 46 47 42 42 43 41 44 43 42 43 42 41 41 39 40 41 42 43 43 46 44 43 45 45 46 45 47 46 46
46 43 43 45 45 47 49 50 51 52 51 50 48 49 46 47 42 41 41 42 44 44 42 41 42 41 42 39 39 39 39 40 40 37 39 41 44 45 46 47 48 47 48
42 42 42 43 44 45 47 50 51 51 51 49 49 48 49 48 42 40 40 43 42 42 41 41 41 41 41 40 39 38 39 39 39 40 41 42 43 44 46 45 46 45 44
43 44 43 45 46 46 48 50 52 50 48 47 47 48 48 49 41 40 41 39 39 38 39 39 41 41 40 40 39 40 39 39 37 38 39 41 46 47 47 49 47 44 44
43 44 45 47 49 49 51 51 50 49 48 48 47 48 48 47 44 41 40 39 38 38 39 39 40 41 39 40 40 40 40 38 38 37 36 38 40 44 47 48 49 46 44
44 45 46 48 45 43 50 50 49 48 50 44 42 42 44 46 42 40 39 39 40 38 37 38 38 38 39 39 39 40 39 39 39 36 35 36 37 39 41 43 48 49 48
47 48 48 48 46 48 48 49 46 46 44 40 38 39 40 40 41 40 39 39 39 37 37 38 39 39 38 38 38 39 39 40 36 35 35 35 37 39 41 43 45 48 49
48 48 48 47 47 48 44 43 45 43 44 40 40 40 39 39 39 39 38 38 38 38 39 39 39 39 38 38 36 35 35 38 35 37 36 37 39 39 40 41 41 43 47
48 48 48 43 46 45 48 46 45 43 41 41 41 39 38 38 37 37 37 37 37 37 38 38 37 37 36 36 36 35 35 35 35 37 38 38 39 39 39 41 41 42 43
48 44 44 41 41 41 43 45 39 39 39 40 39 38 37 38 37 37 37 37 37 37 38 37 37 37 36 36 36 36 36 35 35 36 38 39 39 40 39 40 41 41 41
49 48 41 39 37 38 39 40 40 37 39 38 38 40 40 38 37 37 37 36 38 38 37 37 37 36 36 36 36 36 36 36 37 38 37 38 39 40 39 39 40 41 41
48 42 39 35 35 38 39 40 39 40 39 40 39 38 38 37 37 37 36 37 37 37 37 37 37 37 36 36 36 36 37 37 37 36 36 37 39 39 38 39 39 39 40
45 41 40 37 37 38 38 36 36 40 40 39 39 39 38 37 36 37 37 38 37 37 37 37 37 37 37 37 37 37 36 36 37 37 38 37 38 39 38 38 39 36 37
43 37 35 37 36 36 34 34 37 39 38 38 38 38 38 37 38 38 38 38 38 38 38 37 37 38 38 37 37 37 36 36 36 37 38 39 39 38 38 38 38 38 40
37 38 33 32 34 33 34 36 39 38 37 37 38 37 33 36 38 38 38 38 39 39 38 38 38 38 38 37 37 36 35 35 35 36 37 38 38 37 38 38 38 39 40
38 31 33 33 35 33 34 38 38 36 36 37 38 38 34 38 37 37 38 38 39 39 39 38 38 38 38 37 37 36 35 35 34 35 36 37 37 38 38 38 38 39 41
30 32 33 34 35 33 35 37 37 36 37 36 37 36 37 37 37 37 37 38 39 39 38 38 38 38 38 39 39 39 37 36 37 37 36 35 36 36 37 38 38 39 40
33 34 32 32 32 32 35 37 36 35 36 36 37 37 38 37 37 37 37 37 37 37 38 38 38 38 38 38 39 39 38 37 35 35 36 35 35 35 37 37 38 39 40
33 33 33 33 32 33 36 36 36 37 36 35 37 37 37 37 37 37 37 37 37 37 38 38 38 38 38 38 38 37 34 32 33 33 34 34 35 36 36 37 38 39 40
34 34 33 31 32 35 36 35 37 37 36 36 37 39 38 37 37 37 37 37 37 37 37 37 38 38 38 38 37 33 33 33 33 33 35 36 36 36 37 38 39 40 41
Lifted_Index
6 6 7 8 10 10 10 10 9 9 9 10 10 10 10 10 10 10 10 10 11 12 11 11 10 11 11 12 12 12 12 12 11 10 10 10 9 9 8 6 5 4 4
6 6 7 9 10 10 10 10 9 9 10 10 10 11 11 10 10 10 10 11 12 12 11 11 10 11 11 12 12 12 12 12 12 11 11 10 10 9 8 7 5 4 4
6 6 8 9 9 9 9 9 10 10 10 10 11 11 11 11 11 11 11 12 13 13 12 11 11 11 11 12 13 13 13 13 12 12 11 11 10 10 9 7 5 4 4
6 7 9 9 9 9 9 9 10 10 10 10 11 11 11 12 12 12 13 14 14 13 12 11 11 12 12 13 13 14 14 14 13 12 11 10 10 10 9 8 5 4 4
8 9 9 9 9 9 9 9 9 9 10 10 10 11 11 12 13 13 14 14 13 12 12 12 12 12 12 13 14 14 15 15 14 13 12 10 10 10 10 8 6 4 4
9 9 10 10 10 9 9 9 9 9 10 10 10 11 12 13 13 14 14 13 13 12 12 12 13 13 13 13 14 15 15 15 14 13 12 11 10 10 10 9 7 5 4
10 10 10 10 10 9 9 9 9 9 9 10 10 10 11 12 13 13 13 13 12 12 12 13 13 13 14 14 15 15 16 15 15 13 13 12 11 11 10 10 8 6 5
10 10 10 10 10 10 9 9 9 9 9 9 10 10 11 11 12 12 12 12 12 12 12 13 13 14 14 15 15 16 16 16 15 14 14 13 12 11 10 10 9 8 6
10 10 10 10 10 10 9 9 9 9 9 9 10 10 10 10 11 11 12 12 12 12 13 13 14 14 15 15 16 16 16 16 16 15 14 13 12 11 10 10 9 8 7
10 10 10 10 10 9 9 9 9 9 9 9 9 10 10 10 11 11 12 12 13 13 14 14 14 15 16 16 16 16 16 16 16 16 14 13 12 11 10 10 10 9 8
10 10 10 10 9 9 9 9 9 9 9 10 10 10 10 11 11 12 12 12 13 14 14 15 15 16 16 16 16 16 16 16 16 16 15 13 12 11 11 10 10 9 8
10 10 10 9 9 8 9 9 9 9 10 10 11 11 11 12 12 12 12 12 13 13 14 15 16 16 16 16 16 16 16 16 16 16 15 14 13 12 11 11 10 9 9
9 9 9 9 8 8 9 9 9 10 10 11 11 11 12 12 12 12 12 12 12 13 13 14 15 16 16 16 16 17 17 17 17 16 16 14 13 12 12 11 10 9 8
8 8 8 9 9 9 9 9 10 10 11 11 11 12 12 12 12 12 12 12 12 12 12 13 14 14 15 16 16 17 17 17 17 16 15 14 13 12 11 11 10 8 7
8 8 9 10 10 10 10 10 10 10 10 11 11 12 12 12 12 12 11 11 11 11 11 12 12 12 13 14 15 15 16 16 16 15 15 14 13 12 11 10 9 7 6
8 8 9 10 10 10 10 10 10 10 10 10 11 12 12 12 12 12 12 11 11 11 11 11 11 11 11 12 13 13 14 15 15 14 14 13 12 11 10 10 9 7 6
8 8 9 10 11 11 10 10 9 9 10 10 11 12 12 12 12 12 12 11 11 11 10 10 10 10 11 11 11 11 12 13 14 14 13 12 11 11 10 9 8 7 7
8 9 10 11 11 10 10 9 9 9 10 11 11 12 12 12 12 12 11 11 10 10 9 9 10 10 10 10 10 10 11 12 12 13 12 11 11 10 10 9 8 7 7
9 9 11 11 10 10 10 9 9 9 10 11 12 12 12 12 12 12 11 10 10 9 9 9 10 10 10 10 10 11 11 11 11 11 11 11 10 9 9 8 8 7 7
9 10 11 10 10 9 9 9 9 10 11 11 12 12 12 12 11 11 10 10 10 10 10 10 10 10 11 11 11 11 11 11 11 10 10 10 10 9 9 8 7 7 7
10 10 10 10 9 9 10 9 9 10 11 12 12 12 12 12 11 10 10 10 10 10 10 10 10 11 11 11 11 11 10 10 11 11 10 10 10 9 9 8 7 7 7
10 10 10 9 9 10 10 9 10 11 11 12 12 12 12 11 11 11 11 11 11 11 11 11 11 11 12 12 11 11 11 11 11 11 11 11 10 9 9 8 8 8 8
10 10 9 9 9 10 10 9 10 11 12 12 12 12 12 12 11 11 11 11 11 11 12 11 12 12 12 12 12 12 11 11 12 12 12 11 11 10 10 9 8 8 8
9 9 9 9 10 10 9 10 10 11 11 12 12 13 13 12 11 11 11 11 11 11 11 12 12 13 13 13 13 13 13 13 13 12 12 12 12 11 10 10 9 9 9
9 9 9 10 10 10 10 10 10 11 11 12 13 13 13 13 12 11 11 11 11 11 11 12 13 13 13 13 13 13 13 13 13 13 13 13 12 12 11 10 10 9 9
9 9 10 10 10 10 10 10 10 11 11 13 14 14 14 13 12 12 11 11 11 11 11 12 13 14 13 14 14 13 13 13 13 13 13 13 13 12 12 11 10 10 10